Location: Betpouey
(42.8833°N, 0.0333°E)
Time: 06:40:32
(UTC+00:00)

CZ-4C R/B - Pass Details

Date: 01 December 2020
Orbit: 407 x 489 km, 97.7° (Epoch: 17 January)

Event Time Altitude Azimuth Distance (km) Brightness Sun altitude
Rises 17:07:32 0° 9° (N) 2,578 6.4 -7.6°
Reaches altitude 10° 17:09:38 10° 7° (N) 1,691 5.5 -7.9°
Maximum altitude 17:13:14 66° 285° (WNW) 539 3.5 -8.5°
Drops below altitude 10° 17:16:48 10° 203° (SSW) 1,661 6.5 -9.1°
Sets 17:18:50 0° 200° (SSW) 2,527 7.4 -9.5°
